| time (UTC) | temp F | wind direction | speed MPH | gust MPH | rain 1hr in | rain 24hr in | rain mn in | humidity % | barometer mb |
| 20260510201607 | 60 | 110 | 2.0 | 5.0 | 0.00 | 0.02 | 0.02 | 46 | 1026.4 |
| 20260510200108 | 59 | 100 | 0.0 | 5.0 | 0.00 | 0.02 | 0.02 | 51 | 1026.4 |
| 20260510194607 | 58 | 100 | 2.0 | 5.0 | 0.00 | 0.02 | 0.02 | 50 | 1026.5 |
| 20260510193113 | 57 | 359 | 0.0 | 5.0 | 0.00 | 0.02 | 0.02 | 53 | 1026.4 |
| 20260510191558 | 57 | 0 | 0.0 | 3.0 | 0.00 | 0.02 | 0.02 | 53 | 1026.5 |
| 20260510184603 | 53 | 359 | 0.0 | 4.0 | 0.00 | 0.02 | 0.02 | 60 | 1027.0 |
| 20260510183100 | 53 | 0 | 0.0 | 4.0 | 0.00 | 0.02 | 0.02 | 61 | 1027.0 |
| 20260510181559 | 52 | 0 | 0.0 | 3.0 | 0.00 | 0.02 | 0.02 | 64 | 1027.2 |
| 20260510180103 | 52 | 0 | 0.0 | 3.0 | 0.00 | 0.02 | 0.02 | 66 | 1027.3 |
| 20260510174605 | 51 | 0 | 2.0 | 4.0 | 0.00 | 0.02 | 0.02 | 66 | 1027.3 |
| 20260510173104 | 50 | 0 | 0.0 | 2.0 | 0.00 | 0.02 | 0.02 | 68 | 1027.4 |
| 20260510171600 | 49 | 122 | 1.0 | 3.0 | 0.00 | 0.02 | 0.02 | 72 | 1027.3 |
| 20260510170100 | 49 | 0 | 0.0 | 2.0 | 0.00 | 0.02 | 0.02 | 74 | 1027.5 |
| 20260510164611 | 48 | 0 | 0.0 | 1.0 | 0.00 | 0.02 | 0.02 | 78 | 1027.5 |
| 20260510163058 | 48 | 0 | 0.0 | 1.0 | 0.00 | 0.02 | 0.02 | 79 | 1027.5 |
| 20260510161559 | 48 | 0 | 0.0 | 2.0 | 0.00 | 0.02 | 0.02 | 78 | 1027.3 |
| 20260510160101 | 47 | 0 | 0.0 | 4.0 | 0.00 | 0.02 | 0.02 | 81 | 1027.3 |
| 20260510154603 | 48 | 0 | 0.0 | 3.0 | 0.00 | 0.02 | 0.02 | 82 | 1027.1 |
| 20260510153058 | 46 | 0 | 0.0 | 3.0 | 0.00 | 0.02 | 0.02 | 85 | 1026.8 |
| 20260510151556 | 45 | 0 | 0.0 | 1.0 | 0.00 | 0.02 | 0.02 | 88 | 1026.8 |
| 20260510150123 | 44 | 0 | 0.0 | 1.0 | 0.00 | 0.02 | 0.02 | 88 | 1026.8 |
| 20260510144618 | 44 | 0 | 0.0 | 0.0 | 0.00 | 0.02 | 0.02 | 89 | 1026.8 |
| 20260510143058 | 44 | 0 | 0.0 | 1.0 | 0.00 | 0.02 | 0.02 | 89 | 1026.8 |
| 20260510141555 | 43 | 0 | 0.0 | 1.0 | 0.00 | 0.02 | 0.02 | 91 | 1026.8 |
| 20260510140056 | 43 | 0 | 0.0 | 0.0 | 0.00 | 0.02 | 0.02 | 91 | 1026.7 |
| 20260510134608 | 43 | 0 | 0.0 | 0.0 | 0.00 | 0.02 | 0.02 | 92 | 1026.6 |
| 20260510133058 | 42 | 0 | 0.0 | 0.0 | 0.00 | 0.02 | 0.02 | 92 | 1026.5 |
| 20260510131601 | 42 | 0 | 0.0 | 0.0 | 0.00 | 0.02 | 0.02 | 93 | 1026.5 |
| 20260510130058 | 42 | 0 | 0.0 | 0.0 | 0.00 | 0.02 | 0.02 | 93 | 1026.4 |
| 20260510124600 | 42 | 0 | 0.0 | 0.0 | 0.00 | 0.02 | 0.02 | 93 | 1026.3 |
| 20260510123056 | 42 | 0 | 0.0 | 0.0 | 0.00 | 0.02 | 0.02 | 92 | 1026.0 |
| 20260510121607 | 42 | 0 | 0.0 | 0.0 | 0.00 | 0.02 | 0.02 | 92 | 1025.9 |
| 20260510120419 | 41 | 0 | 0.0 | 0.0 | 0.00 | 0.02 | 0.02 | 92 | 1025.7 |
| 20260510024556 | 58 | 0 | 0.0 | 1.0 | 0.00 | 0.00 | 0.00 | 38 | 1019.3 |
| 20260510023055 | 59 | 0 | 0.0 | 0.0 | 0.00 | 0.00 | 0.00 | 38 | 1018.9 |
| 20260510021557 | 61 | 0 | 0.0 | 1.0 | 0.00 | 0.00 | 0.00 | 30 | 1018.7 |
| 20260510020056 | 62 | 0 | 0.0 | 2.0 | 0.00 | 0.00 | 0.00 | 28 | 1018.2 |
| 20260510014608 | 63 | 0 | 1.0 | 7.0 | 0.00 | 0.00 | 0.00 | 26 | 1018.0 |
| 20260510013056 | 64 | 105 | 1.0 | 3.0 | 0.00 | 0.00 | 0.00 | 25 | 1017.6 |
| 20260510011559 | 65 | 333 | 0.0 | 4.0 | 0.00 | 0.00 | 0.00 | 24 | 1017.0 |
| 20260510010103 | 66 | 0 | 0.0 | 8.0 | 0.00 | 0.00 | 0.00 | 21 | 1016.3 |
| 20260510004558 | 68 | 94 | 1.0 | 6.0 | 0.00 | 0.00 | 0.00 | 20 | 1015.6 |
| 20260510003104 | 70 | 0 | 1.0 | 11.0 | 0.00 | 0.00 | 0.00 | 19 | 1015.5 |
| 20260510001558 | 71 | 0 | 0.0 | 2.0 | 0.00 | 0.00 | 0.00 | 18 | 1015.3 |
| 20260510000059 | 72 | 328 | 1.0 | 6.0 | 0.00 | 0.00 | 0.00 | 12 | 1015.1 |
| 20260509234608 | 73 | 309 | 1.0 | 5.0 | 0.00 | 0.00 | 0.00 | 10 | 1014.9 |
| 20260509233056 | 74 | 0 | 2.0 | 5.0 | 0.00 | 0.00 | 0.00 | 12 | 1014.8 |
| 20260509231557 | 76 | 262 | 2.0 | 8.0 | 0.00 | 0.00 | 0.00 | 13 | 1014.8 |
| 20260509230056 | 75 | 0 | 2.0 | 10.0 | 0.00 | 0.00 | 0.00 | 13 | 1014.6 |
| 20260509224555 | 74 | 302 | 0.0 | 6.0 | 0.00 | 0.00 | 0.00 | 11 | 1014.5 |
| 20260509223059 | 77 | 219 | 3.0 | 8.0 | 0.00 | 0.00 | 0.00 | 11 | 1014.5 |
| 20260509221601 | 77 | 0 | 1.0 | 8.0 | 0.00 | 0.00 | 0.00 | 11 | 1014.6 |
| 20260509214557 | 77 | 243 | 6.0 | 16.0 | 0.00 | 0.00 | 0.00 | 13 | 1014.9 |
| 20260509213105 | 74 | 188 | 1.0 | 7.0 | 0.00 | 0.00 | 0.00 | 13 | 1015.0 |
| 20260509211604 | 74 | 230 | 0.0 | 9.0 | 0.00 | 0.00 | 0.00 | 16 | 1015.2 |
| 20260509204604 | 73 | 160 | 1.0 | 6.0 | 0.00 | 0.00 | 0.00 | 16 | 1015.8 |
| 20260509203102 | 71 | 190 | 2.0 | 8.0 | 0.00 | 0.00 | 0.00 | 18 | 1016.5 |